Time,TemperatureF,DewpointF,PressureIn,WindDirection,WindDirectionDegrees,WindSpeedMPH,WindSpeedGustMPH,Humidity,HourlyPrecipIn,Conditions,Clouds,dailyrainin,SoftwareType,DateUTC
2013-01-29 00:02:00,31.7,31.0,29.62,East,96,0.0,0.0,97,0.00,,OVC002,0.00,VWS V14.01,2013-01-29 06:02:00,
2013-01-29 00:07:00,31.8,31.0,29.61,East,96,0.0,0.0,97,0.00,,OVC002,0.00,VWS V14.01,2013-01-29 06:07:00,
2013-01-29 00:12:00,31.8,31.0,29.61,East,96,0.0,0.0,97,0.00,,OVC002,0.00,VWS V14.01,2013-01-29 06:12:00,
2013-01-29 00:17:00,31.8,31.0,29.61,East,96,0.0,0.0,97,0.00,,OVC002,0.00,VWS V14.01,2013-01-29 06:17:00,
2013-01-29 00:22:00,31.9,31.1,29.61,East,96,0.0,0.0,97,0.00,,OVC002,0.00,VWS V14.01,2013-01-29 06:22:00,
2013-01-29 00:27:00,31.9,31.1,29.59,East,96,0.0,0.0,97,0.00,,OVC002,0.00,VWS V14.01,2013-01-29 06:27:00,
2013-01-29 00:32:00,31.9,31.1,29.59,East,96,0.0,0.0,97,0.00,,OVC002,0.00,VWS V14.01,2013-01-29 06:32:00,
2013-01-29 00:38:00,32.0,31.2,29.59,East,96,0.0,0.0,97,0.00,,OVC002,0.00,VWS V14.01,2013-01-29 06:38:00,
2013-01-29 00:43:00,32.0,31.2,29.58,East,96,0.0,0.0,97,0.00,,OVC002,0.00,VWS V14.01,2013-01-29 06:43:00,
2013-01-29 00:48:00,32.0,31.2,29.58,East,96,0.0,0.0,97,0.00,,OVC002,0.00,VWS V14.01,2013-01-29 06:48:00,
2013-01-29 00:53:00,32.1,31.4,29.58,East,96,0.0,0.0,97,0.00,,OVC002,0.00,VWS V14.01,2013-01-29 06:53:00,
2013-01-29 00:59:00,32.1,31.4,29.58,East,96,0.0,0.0,97,0.00,,OVC002,0.00,VWS V14.01,2013-01-29 06:59:00,
2013-01-29 01:04:00,32.1,31.4,29.58,East,96,0.0,0.0,97,0.00,,OVC002,0.00,VWS V14.01,2013-01-29 07:04:00,
2013-01-29 01:09:00,32.2,31.5,29.58,East,96,0.0,0.0,97,0.00,,OVC002,0.00,VWS V14.01,2013-01-29 07:09:00,
2013-01-29 01:15:00,32.2,31.5,29.57,East,96,0.0,0.0,97,0.00,,OVC002,0.00,VWS V14.01,2013-01-29 07:15:00,
2013-01-29 01:20:00,32.2,31.5,29.57,East,96,0.0,0.0,97,0.00,,OVC002,0.00,VWS V14.01,2013-01-29 07:20:00,
2013-01-29 01:25:00,32.2,31.5,29.56,East,96,0.0,0.0,97,0.00,,OVC002,0.00,VWS V14.01,2013-01-29 07:25:00,
2013-01-29 01:30:00,32.2,31.5,29.56,East,96,0.0,0.0,97,0.00,,OVC002,0.00,VWS V14.01,2013-01-29 07:30:00,
2013-01-29 01:36:00,32.2,31.5,29.56,East,96,0.0,0.0,97,0.00,,OVC002,0.00,VWS V14.01,2013-01-29 07:36:00,
2013-01-29 01:42:00,32.3,31.5,29.55,East,96,0.0,0.0,97,0.00,,OVC002,0.00,VWS V14.01,2013-01-29 07:42:00,
2013-01-29 01:48:00,32.2,31.5,29.56,East,96,1.0,4.0,97,0.00,,OVC002,0.00,VWS V14.01,2013-01-29 07:48:00,
2013-01-29 01:53:00,32.3,31.5,29.55,East,96,0.0,0.0,97,0.00,,OVC002,0.00,VWS V14.01,2013-01-29 07:53:00,
2013-01-29 01:58:00,32.3,31.5,29.55,East,96,0.0,0.0,97,0.00,,OVC002,0.00,VWS V14.01,2013-01-29 07:58:00,
2013-01-29 02:03:00,32.3,31.5,29.55,East,96,0.0,0.0,97,0.00,,,0.00,VWS V14.01,2013-01-29 08:03:00,
2013-01-29 02:08:00,32.2,31.5,29.55,East,96,0.0,0.0,97,0.00,,,0.00,VWS V14.01,2013-01-29 08:08:00,
2013-01-29 02:13:00,32.3,31.5,29.55,East,96,0.0,0.0,97,0.00,,,0.00,VWS V14.01,2013-01-29 08:13:00,
2013-01-29 02:18:00,32.3,31.5,29.55,East,96,0.0,0.0,97,0.00,,,0.00,VWS V14.01,2013-01-29 08:18:00,
2013-01-29 02:24:00,32.3,31.5,29.55,East,96,0.0,0.0,97,0.00,,,0.00,VWS V14.01,2013-01-29 08:24:00,
2013-01-29 02:29:00,32.2,31.5,29.54,East,96,0.0,0.0,97,0.00,,,0.00,VWS V14.01,2013-01-29 08:29:00,
2013-01-29 02:34:00,32.3,31.5,29.55,East,96,0.0,0.0,97,0.00,,,0.00,VWS V14.01,2013-01-29 08:34:00,
2013-01-29 02:39:00,32.3,31.5,29.55,East,96,0.0,0.0,97,0.00,,,0.00,VWS V14.01,2013-01-29 08:39:00,
2013-01-29 02:44:00,32.2,31.5,29.55,East,96,0.0,0.0,97,0.00,,,0.00,VWS V14.01,2013-01-29 08:44:00,
2013-01-29 02:49:00,32.2,31.5,29.55,East,96,0.0,0.0,97,0.00,,,0.00,VWS V14.01,2013-01-29 08:49:00,
2013-01-29 02:55:00,32.2,31.5,29.55,East,96,0.0,0.0,97,0.00,,,0.00,VWS V14.01,2013-01-29 08:55:00,
2013-01-29 03:00:00,32.3,31.5,29.55,East,96,0.0,0.0,97,0.00,,,0.00,VWS V14.01,2013-01-29 09:00:00,
2013-01-29 03:06:00,32.3,31.5,29.55,East,96,0.0,0.0,97,0.00,,,0.00,VWS V14.01,2013-01-29 09:06:00,
2013-01-29 03:12:00,32.3,31.5,29.55,East,96,0.0,0.0,97,0.00,,,0.00,VWS V14.01,2013-01-29 09:12:00,
2013-01-29 03:17:00,32.3,31.5,29.55,East,96,0.0,1.0,97,0.00,,,0.00,VWS V14.01,2013-01-29 09:17:00,
2013-01-29 03:22:00,32.3,31.5,29.56,East,96,0.0,0.0,97,0.00,,,0.00,VWS V14.01,2013-01-29 09:22:00,
2013-01-29 03:27:00,32.3,31.5,29.56,East,96,0.0,0.0,97,0.00,,,0.00,VWS V14.01,2013-01-29 09:27:00,
2013-01-29 03:32:00,32.2,31.5,29.56,East,96,0.0,0.0,97,0.00,,,0.00,VWS V14.01,2013-01-29 09:32:00,
2013-01-29 03:38:00,32.3,31.5,29.56,East,96,0.0,0.0,97,0.00,,,0.00,VWS V14.01,2013-01-29 09:38:00,
2013-01-29 03:43:00,32.2,31.5,29.56,East,96,0.0,4.0,97,0.00,,,0.00,VWS V14.01,2013-01-29 09:43:00,
2013-01-29 03:49:00,32.2,31.5,29.55,East,96,0.0,1.0,97,0.00,,,0.00,VWS V14.01,2013-01-29 09:49:00,
2013-01-29 03:54:00,32.2,31.5,29.55,East,96,0.0,0.0,97,0.00,,,0.00,VWS V14.01,2013-01-29 09:54:00,
2013-01-29 03:59:00,32.2,31.5,29.55,East,96,0.0,0.0,97,0.00,,,0.00,VWS V14.01,2013-01-29 09:59:00,
2013-01-29 04:04:00,32.1,31.4,29.56,East,96,0.0,1.0,97,0.00,,,0.00,VWS V14.01,2013-01-29 10:04:00,
2013-01-29 04:09:00,32.1,31.4,29.56,East,96,0.0,2.0,97,0.00,,,0.00,VWS V14.01,2013-01-29 10:09:00,
2013-01-29 04:14:00,32.1,31.4,29.55,East,96,0.0,0.0,97,0.00,,,0.00,VWS V14.01,2013-01-29 10:14:00,
2013-01-29 04:20:00,32.1,31.4,29.55,East,96,0.0,2.0,97,0.00,,,0.00,VWS V14.01,2013-01-29 10:20:00,
2013-01-29 04:25:00,32.0,31.2,29.54,East,96,2.0,2.0,97,0.00,,,0.00,VWS V14.01,2013-01-29 10:25:00,
2013-01-29 04:30:00,32.0,31.2,29.54,East,96,0.0,0.0,97,0.00,,,0.00,VWS V14.01,2013-01-29 10:30:00,
2013-01-29 04:35:00,32.0,31.2,29.53,East,96,0.0,0.0,97,0.00,,,0.00,VWS V14.01,2013-01-29 10:35:00,
2013-01-29 04:40:00,31.9,31.1,29.53,East,96,0.0,0.0,97,0.00,,,0.00,VWS V14.01,2013-01-29 10:40:00,
2013-01-29 04:46:00,31.9,31.1,29.54,East,96,0.0,1.0,97,0.00,,,0.00,VWS V14.01,2013-01-29 10:46:00,
2013-01-29 04:51:00,31.9,31.1,29.54,WNW,293,1.0,4.0,97,0.00,,,0.00,VWS V14.01,2013-01-29 10:51:00,
2013-01-29 04:57:00,31.9,31.1,29.54,WNW,293,0.0,0.0,97,0.00,,,0.00,VWS V14.01,2013-01-29 10:57:00,
2013-01-29 05:02:00,31.9,31.1,29.54,WNW,293,0.0,0.0,97,0.00,,,0.00,VWS V14.01,2013-01-29 11:02:00,
2013-01-29 05:07:00,31.9,31.1,29.54,WNW,293,0.0,0.0,97,0.00,,,0.00,VWS V14.01,2013-01-29 11:07:00,
2013-01-29 05:13:00,31.8,31.0,29.55,NW,308,0.0,0.0,97,0.00,,,0.00,VWS V14.01,2013-01-29 11:13:00,
2013-01-29 05:18:00,31.8,31.0,29.55,NW,308,0.0,0.0,97,0.00,,,0.00,VWS V14.01,2013-01-29 11:18:00,
2013-01-29 05:23:00,31.8,31.0,29.54,NW,323,0.0,1.0,97,0.00,,,0.00,VWS V14.01,2013-01-29 11:23:00,
2013-01-29 05:28:00,31.8,31.0,29.54,NW,304,0.0,2.0,97,0.00,,,0.00,VWS V14.01,2013-01-29 11:28:00,
2013-01-29 05:34:00,31.7,31.0,29.52,NNW,348,0.0,3.0,97,0.00,,,0.00,VWS V14.01,2013-01-29 11:34:00,
2013-01-29 05:39:00,31.6,30.9,29.52,NNW,347,0.0,1.0,97,0.00,,,0.00,VWS V14.01,2013-01-29 11:39:00,
2013-01-29 05:45:00,31.6,30.9,29.53,NNW,330,0.0,2.0,97,0.00,,,0.00,VWS V14.01,2013-01-29 11:45:00,
2013-01-29 05:51:00,31.6,30.9,29.54,NNW,329,0.0,3.0,97,0.00,,,0.00,VWS V14.01,2013-01-29 11:51:00,
2013-01-29 05:56:00,31.7,31.0,29.55,NW,326,0.0,0.0,97,0.00,,,0.00,VWS V14.01,2013-01-29 11:56:00,
2013-01-29 06:01:00,31.6,30.9,29.55,NW,326,0.0,0.0,97,0.00,,,0.00,VWS V14.01,2013-01-29 12:01:00,
2013-01-29 06:06:00,31.7,31.0,29.55,NW,326,0.0,0.0,97,0.00,,,0.00,VWS V14.01,2013-01-29 12:06:00,
2013-01-29 06:11:00,31.6,30.9,29.54,NW,326,0.0,2.0,97,0.00,,,0.00,VWS V14.01,2013-01-29 12:11:00,
2013-01-29 06:17:00,31.6,30.9,29.54,NW,326,0.0,3.0,97,0.00,,,0.00,VWS V14.01,2013-01-29 12:17:00,
2013-01-29 06:23:00,31.5,30.8,29.54,WNW,296,0.0,2.0,97,0.00,,,0.00,VWS V14.01,2013-01-29 12:23:00,
2013-01-29 06:28:00,31.5,30.8,29.54,West,281,0.0,3.0,97,0.00,,,0.00,VWS V14.01,2013-01-29 12:28:00,
2013-01-29 06:33:00,31.5,30.8,29.55,WNW,288,0.0,2.0,97,0.00,,,0.00,VWS V14.01,2013-01-29 12:33:00,
2013-01-29 06:38:00,31.5,30.8,29.54,WNW,303,0.0,0.0,97,0.00,,,0.00,VWS V14.01,2013-01-29 12:38:00,
2013-01-29 06:43:00,31.5,30.8,29.55,WNW,303,0.0,2.0,97,0.00,,,0.00,VWS V14.01,2013-01-29 12:43:00,
2013-01-29 06:48:00,31.5,30.8,29.56,WNW,303,1.0,3.0,97,0.00,,,0.00,VWS V14.01,2013-01-29 12:48:00,
2013-01-29 06:53:00,31.5,30.8,29.56,WNW,288,0.0,1.0,97,0.00,,,0.00,VWS V14.01,2013-01-29 12:53:00,
2013-01-29 06:58:00,31.4,30.6,29.55,WNW,288,0.0,2.0,97,0.00,,,0.00,VWS V14.01,2013-01-29 12:58:00,
2013-01-29 07:03:00,31.4,30.6,29.56,WNW,288,0.0,0.0,97,0.00,,,0.00,VWS V14.01,2013-01-29 13:03:00,
2013-01-29 07:08:00,31.4,30.6,29.56,WNW,288,0.0,0.0,97,0.00,,,0.00,VWS V14.01,2013-01-29 13:08:00,
2013-01-29 07:13:00,31.4,30.6,29.56,WNW,288,0.0,0.0,97,0.00,,,0.00,VWS V14.01,2013-01-29 13:13:00,
2013-01-29 07:18:00,31.4,30.6,29.56,WNW,288,0.0,0.0,97,0.00,,,0.00,VWS V14.01,2013-01-29 13:18:00,
2013-01-29 07:23:00,31.4,30.6,29.56,WNW,288,0.0,2.0,97,0.00,,,0.00,VWS V14.01,2013-01-29 13:23:00,
2013-01-29 07:29:00,31.4,30.6,29.55,WNW,288,0.0,0.0,97,0.00,,,0.00,VWS V14.01,2013-01-29 13:29:00,
2013-01-29 07:34:00,31.4,30.6,29.56,WNW,288,0.0,0.0,97,0.00,,,0.00,VWS V14.01,2013-01-29 13:34:00,
2013-01-29 07:39:00,31.4,30.6,29.56,WNW,288,0.0,0.0,97,0.00,,,0.00,VWS V14.01,2013-01-29 13:39:00,
2013-01-29 07:44:00,31.4,30.6,29.57,WNW,288,0.0,0.0,97,0.00,,,0.00,VWS V14.01,2013-01-29 13:44:00,
2013-01-29 07:49:00,31.4,30.6,29.57,West,281,1.0,1.0,97,0.00,,,0.00,VWS V14.01,2013-01-29 13:49:00,
2013-01-29 07:55:00,31.4,30.6,29.57,West,281,0.0,3.0,97,0.00,,,0.00,VWS V14.01,2013-01-29 13:55:00,
2013-01-29 08:00:00,31.4,30.6,29.58,West,274,3.0,5.0,97,0.00,,,0.00,VWS V14.01,2013-01-29 14:00:00,
2013-01-29 08:06:00,31.4,30.6,29.59,West,268,2.0,4.0,97,0.00,,,0.00,VWS V14.01,2013-01-29 14:06:00,
2013-01-29 08:11:00,31.4,30.6,29.59,West,274,3.0,4.0,97,0.00,,,0.00,VWS V14.01,2013-01-29 14:11:00,
2013-01-29 08:16:00,31.4,30.6,29.59,WNW,292,2.0,2.0,97,0.00,,,0.00,VWS V14.01,2013-01-29 14:16:00,
2013-01-29 08:21:00,31.4,30.6,29.58,WNW,295,0.0,1.0,97,0.00,,,0.00,VWS V14.01,2013-01-29 14:21:00,
2013-01-29 08:26:00,31.3,30.5,29.58,NW,323,2.0,2.0,97,0.00,,,0.00,VWS V14.01,2013-01-29 14:26:00,
2013-01-29 08:31:00,31.3,30.5,29.58,West,277,0.0,1.0,97,0.00,,,0.00,VWS V14.01,2013-01-29 14:31:00,
2013-01-29 08:36:00,31.3,30.5,29.58,West,261,0.0,4.0,97,0.00,,,0.00,VWS V14.01,2013-01-29 14:36:00,
2013-01-29 08:41:00,31.4,30.6,29.58,WNW,301,0.0,3.0,97,0.00,,,0.00,VWS V14.01,2013-01-29 14:41:00,
2013-01-29 08:46:00,31.4,30.6,29.59,NW,317,0.0,5.0,97,0.00,,,0.00,VWS V14.01,2013-01-29 14:46:00,
2013-01-29 08:51:00,31.4,30.6,29.60,West,277,0.0,6.0,97,0.00,,,0.00,VWS V14.01,2013-01-29 14:51:00,
2013-01-29 08:57:00,31.4,30.6,29.61,NW,306,1.0,5.0,97,0.00,,,0.00,VWS V14.01,2013-01-29 14:57:00,
2013-01-29 09:02:00,31.5,30.8,29.62,West,273,1.0,6.0,97,0.00,,,0.00,VWS V14.01,2013-01-29 15:02:00,
2013-01-29 09:07:00,31.5,30.8,29.61,NW,317,2.0,2.0,97,0.00,,,0.00,VWS V14.01,2013-01-29 15:07:00,
2013-01-29 09:12:00,31.5,30.8,29.60,NW,304,0.0,5.0,97,0.00,,,0.00,VWS V14.01,2013-01-29 15:12:00,
2013-01-29 09:18:00,31.5,30.8,29.59,NW,317,1.0,3.0,97,0.00,,,0.00,VWS V14.01,2013-01-29 15:18:00,
2013-01-29 09:23:00,31.6,30.9,29.59,West,269,0.0,4.0,97,0.00,,,0.00,VWS V14.01,2013-01-29 15:23:00,
2013-01-29 09:28:00,31.6,30.9,29.59,West,269,2.0,8.0,97,0.00,,,0.00,VWS V14.01,2013-01-29 15:28:00,
2013-01-29 09:34:00,31.6,30.9,29.59,NW,304,3.0,3.0,97,0.00,,,0.00,VWS V14.01,2013-01-29 15:34:00,
2013-01-29 09:40:00,31.7,31.0,29.58,NW,323,0.0,5.0,97,0.00,,,0.00,VWS V14.01,2013-01-29 15:40:00,
2013-01-29 09:45:00,31.8,31.0,29.59,NW,319,3.0,5.0,97,0.00,,,0.00,VWS V14.01,2013-01-29 15:45:00,
2013-01-29 09:51:00,31.8,31.0,29.61,West,271,3.0,5.0,97,0.00,,,0.00,VWS V14.01,2013-01-29 15:51:00,
2013-01-29 09:56:00,31.8,31.0,29.61,WNW,291,1.0,2.0,97,0.00,,,0.00,VWS V14.01,2013-01-29 15:56:00,
2013-01-29 10:02:00,31.9,31.4,29.60,WNW,300,0.0,0.0,98,0.00,,,0.00,VWS V14.01,2013-01-29 16:02:00,
2013-01-29 10:08:00,32.0,31.5,29.61,West,281,0.0,4.0,98,0.00,,,0.00,VWS V14.01,2013-01-29 16:08:00,
2013-01-29 10:14:00,32.0,31.5,29.62,West,267,3.0,3.0,98,0.01,,,0.01,VWS V14.01,2013-01-29 16:14:00,
2013-01-29 10:19:00,32.0,31.5,29.62,NW,316,0.0,1.0,98,0.01,,,0.01,VWS V14.01,2013-01-29 16:19:00,
2013-01-29 10:24:00,32.0,31.5,29.63,NNW,329,0.0,3.0,98,0.01,,,0.01,VWS V14.01,2013-01-29 16:24:00,
2013-01-29 10:30:00,32.0,31.5,29.62,NW,324,0.0,4.0,98,0.01,,,0.01,VWS V14.01,2013-01-29 16:30:00,
2013-01-29 10:36:00,32.0,31.2,29.62,NW,321,0.0,2.0,97,0.01,,,0.01,VWS V14.01,2013-01-29 16:36:00,
2013-01-29 10:41:00,32.1,31.4,29.63,NW,306,0.0,5.0,97,0.01,,,0.01,VWS V14.01,2013-01-29 16:41:00,
2013-01-29 10:46:00,32.1,31.4,29.62,NNW,337,5.0,5.0,97,0.01,,,0.01,VWS V14.01,2013-01-29 16:46:00,
2013-01-29 10:52:00,32.2,31.5,29.62,NW,315,0.0,3.0,97,0.01,,,0.01,VWS V14.01,2013-01-29 16:52:00,
2013-01-29 10:57:00,32.2,31.5,29.63,WNW,290,2.0,5.0,97,0.01,,,0.01,VWS V14.01,2013-01-29 16:57:00,
2013-01-29 11:02:00,32.3,31.5,29.63,NNW,344,0.0,2.0,97,0.01,,OVC008,0.01,VWS V14.01,2013-01-29 17:02:00,
2013-01-29 11:07:00,32.4,31.6,29.64,WSW,256,0.0,4.0,97,0.02,,OVC008,0.02,VWS V14.01,2013-01-29 17:07:00,
2013-01-29 11:13:00,32.4,31.6,29.64,NW,313,0.0,5.0,97,0.01,,OVC008,0.02,VWS V14.01,2013-01-29 17:13:00,
2013-01-29 11:18:00,32.3,31.5,29.65,WNW,302,0.0,3.0,97,0.01,,OVC008,0.02,VWS V14.01,2013-01-29 17:18:00,
2013-01-29 11:23:00,32.3,31.5,29.66,West,278,2.0,5.0,97,0.01,,OVC014,0.02,VWS V14.01,2013-01-29 17:23:00,
2013-01-29 11:29:00,32.3,31.5,29.67,West,277,0.0,3.0,97,0.01,,OVC014,0.02,VWS V14.01,2013-01-29 17:29:00,
2013-01-29 11:34:00,32.3,31.5,29.66,NW,319,4.0,4.0,97,0.01,,OVC014,0.02,VWS V14.01,2013-01-29 17:34:00,
2013-01-29 11:39:00,32.3,31.5,29.65,NW,313,3.0,3.0,97,0.01,,OVC014,0.02,VWS V14.01,2013-01-29 17:39:00,
2013-01-29 11:44:00,32.3,31.5,29.65,NW,315,3.0,5.0,97,0.01,,OVC016,0.02,VWS V14.01,2013-01-29 17:44:00,
2013-01-29 11:49:00,32.4,31.6,29.66,NW,313,1.0,3.0,97,0.01,,OVC016,0.02,VWS V14.01,2013-01-29 17:49:00,
2013-01-29 11:54:00,32.4,31.6,29.65,NW,325,1.0,5.0,97,0.01,,OVC016,0.02,VWS V14.01,2013-01-29 17:54:00,
2013-01-29 12:00:00,32.4,31.6,29.65,NW,309,0.0,0.0,97,0.01,,OVC016,0.02,VWS V14.01,2013-01-29 18:00:00,
2013-01-29 12:05:00,32.5,31.7,29.65,NW,311,0.0,0.0,97,0.01,,OVC014,0.02,VWS V14.01,2013-01-29 18:05:00,
2013-01-29 12:10:00,32.6,31.8,29.66,NW,316,0.0,2.0,97,0.00,,OVC014,0.02,VWS V14.01,2013-01-29 18:10:00,
2013-01-29 12:15:00,32.6,31.8,29.66,NW,322,0.0,0.0,97,0.01,,OVC014,0.03,VWS V14.01,2013-01-29 18:15:00,
2013-01-29 12:21:00,32.8,32.0,29.65,NW,312,3.0,3.0,97,0.01,,OVC014,0.03,VWS V14.01,2013-01-29 18:21:00,
2013-01-29 12:26:00,32.8,32.0,29.64,WNW,284,0.0,5.0,97,0.01,,OVC014,0.03,VWS V14.01,2013-01-29 18:26:00,
2013-01-29 12:31:00,32.9,32.1,29.63,WNW,297,0.0,0.0,97,0.01,,OVC014,0.03,VWS V14.01,2013-01-29 18:31:00,
2013-01-29 12:36:00,32.9,32.1,29.63,NW,313,2.0,6.0,97,0.01,,OVC014,0.03,VWS V14.01,2013-01-29 18:36:00,
2013-01-29 12:42:00,32.9,32.1,29.63,NNE,22,0.0,1.0,97,0.02,,OVC014,0.04,VWS V14.01,2013-01-29 18:42:00,
2013-01-29 12:47:00,33.0,32.2,29.64,NW,324,0.0,3.0,97,0.02,,OVC014,0.04,VWS V14.01,2013-01-29 18:47:00,
2013-01-29 12:53:00,33.0,32.2,29.63,NW,311,0.0,2.0,97,0.02,,OVC014,0.04,VWS V14.01,2013-01-29 18:53:00,
2013-01-29 12:58:00,33.0,32.2,29.64,NW,312,1.0,4.0,97,0.02,,OVC014,0.04,VWS V14.01,2013-01-29 18:58:00,
2013-01-29 13:04:00,33.0,32.2,29.64,WNW,293,0.0,2.0,97,0.02,,OVC020,0.04,VWS V14.01,2013-01-29 19:04:00,
2013-01-29 13:09:00,33.3,32.5,29.63,NW,315,0.0,5.0,97,0.03,,OVC020,0.05,VWS V14.01,2013-01-29 19:09:00,
2013-01-29 13:14:00,33.3,32.3,29.63,NNW,327,2.0,2.0,96,0.02,,OVC020,0.05,VWS V14.01,2013-01-29 19:14:00,
2013-01-29 13:19:00,33.2,32.2,29.63,NNW,333,0.0,1.0,96,0.02,,OVC020,0.05,VWS V14.01,2013-01-29 19:19:00,
2013-01-29 13:24:00,33.2,32.2,29.63,NW,305,0.0,2.0,96,0.02,,OVC014,0.05,VWS V14.01,2013-01-29 19:24:00,
2013-01-29 13:29:00,33.3,32.3,29.63,NNW,327,0.0,4.0,96,0.02,,OVC014,0.05,VWS V14.01,2013-01-29 19:29:00,
2013-01-29 13:34:00,33.3,32.3,29.62,NW,325,2.0,5.0,96,0.03,,OVC014,0.06,VWS V14.01,2013-01-29 19:34:00,
2013-01-29 13:39:00,33.2,32.2,29.61,NNW,336,1.0,7.0,96,0.02,,OVC014,0.06,VWS V14.01,2013-01-29 19:39:00,
2013-01-29 13:45:00,33.2,32.2,29.61,WSW,245,9.0,9.0,96,0.02,,OVC016,0.06,VWS V14.01,2013-01-29 19:45:00,
2013-01-29 13:50:00,33.2,31.9,29.61,NW,314,0.0,3.0,95,0.02,,OVC016,0.06,VWS V14.01,2013-01-29 19:50:00,
2013-01-29 13:55:00,33.3,32.0,29.61,NW,324,0.0,2.0,95,0.02,,OVC016,0.06,VWS V14.01,2013-01-29 19:55:00,
2013-01-29 14:00:00,33.3,32.0,29.61,NW,319,0.0,2.0,95,0.02,,OVC016,0.06,VWS V14.01,2013-01-29 20:00:00,
2013-01-29 14:02:00,33.3,32.0,29.61,NNW,327,0.0,2.0,95,0.02,,OVC018,0.06,VWS V14.01,2013-01-29 20:02:00,
2013-01-29 14:08:00,33.4,32.1,29.61,NW,320,2.0,4.0,95,0.02,,OVC018,0.07,VWS V14.01,2013-01-29 20:08:00,
2013-01-29 14:14:00,33.5,32.2,29.62,NNW,334,0.0,4.0,95,0.02,,OVC018,0.07,VWS V14.01,2013-01-29 20:14:00,
2013-01-29 14:19:00,33.4,31.9,29.62,NNW,333,4.0,4.0,94,0.02,,OVC018,0.07,VWS V14.01,2013-01-29 20:19:00,
2013-01-29 14:24:00,33.3,31.8,29.61,North,350,1.0,4.0,94,0.02,,OVC018,0.07,VWS V14.01,2013-01-29 20:24:00,
2013-01-29 14:29:00,33.3,31.5,29.61,NNE,17,1.0,3.0,93,0.02,,OVC018,0.07,VWS V14.01,2013-01-29 20:29:00,
2013-01-29 14:35:00,33.2,31.4,29.61,WNW,301,0.0,6.0,93,0.01,,OVC018,0.07,VWS V14.01,2013-01-29 20:35:00,
2013-01-29 14:41:00,33.4,31.6,29.61,WNW,288,2.0,4.0,93,0.01,,OVC018,0.07,VWS V14.01,2013-01-29 20:41:00,
2013-01-29 14:47:00,33.4,31.6,29.61,NW,322,0.0,7.0,93,0.01,,OVC018,0.07,VWS V14.01,2013-01-29 20:47:00,
2013-01-29 14:52:00,33.5,31.7,29.61,North,360,0.0,8.0,93,0.02,,OVC018,0.08,VWS V14.01,2013-01-29 20:52:00,
2013-01-29 14:58:00,33.6,31.8,29.63,WNW,302,0.0,4.0,93,0.02,,OVC018,0.08,VWS V14.01,2013-01-29 20:58:00,
2013-01-29 15:04:00,33.6,31.5,29.63,NW,321,1.0,4.0,92,0.02,,OVC018,0.08,VWS V14.01,2013-01-29 21:04:00,
2013-01-29 15:12:00,33.6,31.5,29.63,NW,325,0.0,0.0,92,0.01,,OVC018,0.08,VWS V14.01,2013-01-29 21:12:00,
2013-01-29 15:18:00,33.6,31.5,29.64,NW,315,0.0,3.0,92,0.01,,OVC018,0.08,VWS V14.01,2013-01-29 21:18:00,
2013-01-29 15:23:00,33.5,31.4,29.64,NW,323,0.0,3.0,92,0.01,,OVC020,0.08,VWS V14.01,2013-01-29 21:23:00,
2013-01-29 15:29:00,33.4,31.3,29.64,NNW,332,0.0,5.0,92,0.01,,OVC020,0.08,VWS V14.01,2013-01-29 21:29:00,
2013-01-29 15:34:00,33.3,31.2,29.64,NNW,331,0.0,3.0,92,0.01,,OVC020,0.08,VWS V14.01,2013-01-29 21:34:00,
2013-01-29 15:39:00,33.3,31.0,29.64,NW,307,2.0,7.0,91,0.01,,OVC020,0.08,VWS V14.01,2013-01-29 21:39:00,
2013-01-29 15:45:00,33.2,30.9,29.64,NNW,332,2.0,9.0,91,0.01,,OVC020,0.08,VWS V14.01,2013-01-29 21:45:00,
2013-01-29 15:50:00,33.2,30.9,29.65,NNW,331,1.0,6.0,91,0.01,,OVC020,0.08,VWS V14.01,2013-01-29 21:50:00,
2013-01-29 15:55:00,33.1,30.8,29.65,NW,310,0.0,5.0,91,0.00,,OVC020,0.08,VWS V14.01,2013-01-29 21:55:00,
2013-01-29 16:00:00,33.1,30.8,29.64,NW,322,0.0,3.0,91,0.00,,OVC020,0.08,VWS V14.01,2013-01-29 22:00:00,
2013-01-29 16:06:00,33.0,30.7,29.64,NW,315,4.0,8.0,91,0.00,,BKN020,0.08,VWS V14.01,2013-01-29 22:06:00,
2013-01-29 16:11:00,32.9,30.6,29.63,NW,313,0.0,4.0,91,0.00,,BKN020,0.08,VWS V14.01,2013-01-29 22:11:00,
2013-01-29 16:16:00,32.8,30.5,29.64,WNW,301,3.0,6.0,91,0.00,,BKN020,0.08,VWS V14.01,2013-01-29 22:16:00,
2013-01-29 16:22:00,32.8,30.5,29.64,North,360,3.0,6.0,91,0.00,,BKN020,0.08,VWS V14.01,2013-01-29 22:22:00,
2013-01-29 16:28:00,32.8,30.5,29.64,NW,316,0.0,0.0,91,0.00,,BKN020,0.08,VWS V14.01,2013-01-29 22:28:00,
2013-01-29 16:34:00,32.7,30.4,29.64,WNW,300,2.0,3.0,91,0.00,,BKN020,0.08,VWS V14.01,2013-01-29 22:34:00,
2013-01-29 16:39:00,32.6,30.3,29.64,North,9,0.0,6.0,91,0.00,,BKN020,0.08,VWS V14.01,2013-01-29 22:39:00,
2013-01-29 16:45:00,32.6,30.3,29.64,North,360,1.0,2.0,91,0.00,,BKN020,0.08,VWS V14.01,2013-01-29 22:45:00,
2013-01-29 16:51:00,32.5,30.2,29.63,NW,308,0.0,6.0,91,0.00,,BKN020,0.08,VWS V14.01,2013-01-29 22:51:00,
2013-01-29 16:56:00,32.4,30.1,29.62,NNW,346,0.0,0.0,91,0.00,,BKN020,0.08,VWS V14.01,2013-01-29 22:56:00,
2013-01-29 17:01:00,32.3,30.0,29.63,NNW,342,0.0,3.0,91,0.00,,OVC020,0.08,VWS V14.01,2013-01-29 23:01:00,
2013-01-29 17:06:00,32.3,30.0,29.65,NW,318,0.0,4.0,91,0.00,,OVC020,0.08,VWS V14.01,2013-01-29 23:06:00,
2013-01-29 17:12:00,32.3,30.0,29.65,NNW,330,0.0,2.0,91,0.00,,OVC020,0.08,VWS V14.01,2013-01-29 23:12:00,
2013-01-29 17:18:00,32.2,29.9,29.64,NW,319,0.0,0.0,91,0.00,,OVC020,0.08,VWS V14.01,2013-01-29 23:18:00,
2013-01-29 17:24:00,32.3,30.0,29.65,NNW,336,2.0,6.0,91,0.00,,OVC020,0.08,VWS V14.01,2013-01-29 23:24:00,
2013-01-29 17:29:00,32.3,30.0,29.65,NNW,336,4.0,4.0,91,0.00,,OVC020,0.08,VWS V14.01,2013-01-29 23:29:00,
2013-01-29 17:34:00,32.2,29.9,29.65,NW,325,0.0,1.0,91,0.00,,OVC020,0.08,VWS V14.01,2013-01-29 23:34:00,
2013-01-29 17:39:00,32.1,29.8,29.66,NW,306,2.0,3.0,91,0.00,,OVC020,0.08,VWS V14.01,2013-01-29 23:39:00,
2013-01-29 17:45:00,32.0,29.7,29.67,NW,320,4.0,5.0,91,0.00,,OVC022,0.08,VWS V14.01,2013-01-29 23:45:00,
2013-01-29 17:50:00,31.9,29.6,29.66,NW,315,0.0,0.0,91,0.00,,OVC022,0.08,VWS V14.01,2013-01-29 23:50:00,
2013-01-29 17:55:00,31.8,29.5,29.67,WNW,303,4.0,4.0,91,0.00,,OVC022,0.08,VWS V14.01,2013-01-29 23:55:00,
2013-01-29 18:00:00,31.7,29.4,29.67,NNW,341,1.0,2.0,91,0.00,,OVC022,0.08,VWS V14.01,2013-01-30 00:00:00,
2013-01-29 18:05:00,31.6,29.3,29.67,NW,321,0.0,1.0,91,0.00,,BKN020,0.08,VWS V14.01,2013-01-30 00:05:00,
2013-01-29 18:10:00,31.6,29.3,29.68,NNW,334,3.0,6.0,91,0.00,,BKN020,0.08,VWS V14.01,2013-01-30 00:10:00,
2013-01-29 18:15:00,31.5,29.2,29.68,West,271,1.0,2.0,91,0.00,,BKN020,0.08,VWS V14.01,2013-01-30 00:15:00,
2013-01-29 18:20:00,31.5,29.2,29.69,WNW,302,2.0,5.0,91,0.00,,BKN020,0.08,VWS V14.01,2013-01-30 00:20:00,
2013-01-29 18:26:00,31.4,28.8,29.68,NW,322,0.0,7.0,90,0.00,,BKN022,0.08,VWS V14.01,2013-01-30 00:26:00,
2013-01-29 18:31:00,31.4,28.8,29.68,NW,316,0.0,0.0,90,0.00,,BKN022,0.08,VWS V14.01,2013-01-30 00:31:00,
2013-01-29 18:37:00,31.3,28.7,29.68,NW,325,0.0,3.0,90,0.00,,BKN022,0.08,VWS V14.01,2013-01-30 00:37:00,
2013-01-29 18:42:00,31.3,28.7,29.68,NW,319,1.0,2.0,90,0.00,,BKN024,0.08,VWS V14.01,2013-01-30 00:42:00,
2013-01-29 18:47:00,31.3,28.7,29.69,NNW,331,4.0,4.0,90,0.00,,BKN024,0.08,VWS V14.01,2013-01-30 00:47:00,
2013-01-29 18:52:00,31.2,28.6,29.67,NW,315,1.0,1.0,90,0.00,,BKN024,0.08,VWS V14.01,2013-01-30 00:52:00,
2013-01-29 18:57:00,31.2,28.6,29.66,NW,326,1.0,4.0,90,0.00,,BKN024,0.08,VWS V14.01,2013-01-30 00:57:00,
2013-01-29 19:02:00,31.1,28.5,29.65,NNW,327,5.0,7.0,90,0.00,,BKN024,0.08,VWS V14.01,2013-01-30 01:02:00,
2013-01-29 19:07:00,31.0,28.4,29.64,NNW,331,3.0,4.0,90,0.00,,BKN024,0.08,VWS V14.01,2013-01-30 01:07:00,
2013-01-29 19:12:00,30.9,28.3,29.63,NNW,332,4.0,6.0,90,0.00,,BKN024,0.08,VWS V14.01,2013-01-30 01:12:00,
2013-01-29 19:18:00,30.8,28.2,29.65,NW,322,0.0,0.0,90,0.00,,BKN024,0.08,VWS V14.01,2013-01-30 01:18:00,
2013-01-29 19:23:00,30.7,28.1,29.66,NW,313,0.0,3.0,90,0.00,,OVC022,0.08,VWS V14.01,2013-01-30 01:23:00,
2013-01-29 19:28:00,30.7,28.1,29.66,NW,324,0.0,4.0,90,0.00,,OVC022,0.08,VWS V14.01,2013-01-30 01:28:00,
2013-01-29 19:34:00,30.6,27.8,29.67,West,269,7.0,8.0,89,0.00,,OVC022,0.08,VWS V14.01,2013-01-30 01:34:00,
2013-01-29 19:39:00,30.6,27.8,29.68,NNW,337,0.0,3.0,89,0.00,,OVC022,0.08,VWS V14.01,2013-01-30 01:39:00,
2013-01-29 19:45:00,30.6,27.8,29.68,West,275,1.0,6.0,89,0.00,,OVC018,0.08,VWS V14.01,2013-01-30 01:45:00,
2013-01-29 19:50:00,30.6,27.8,29.69,NNW,346,0.0,7.0,89,0.00,,OVC018,0.08,VWS V14.01,2013-01-30 01:50:00,
2013-01-29 19:55:00,30.6,27.8,29.68,NW,320,0.0,6.0,89,0.00,,OVC018,0.08,VWS V14.01,2013-01-30 01:55:00,
2013-01-29 20:00:00,30.6,27.8,29.68,WNW,292,0.0,6.0,89,0.00,,OVC018,0.08,VWS V14.01,2013-01-30 02:00:00,
2013-01-29 20:06:00,30.5,27.4,29.69,NW,318,0.0,5.0,88,0.00,,OVC018,0.08,VWS V14.01,2013-01-30 02:06:00,
2013-01-29 20:11:00,30.4,27.3,29.70,NE,36,0.0,3.0,88,0.00,,OVC018,0.08,VWS V14.01,2013-01-30 02:11:00,
2013-01-29 20:16:00,30.0,26.6,29.70,NNE,19,3.0,4.0,87,0.00,,OVC018,0.08,VWS V14.01,2013-01-30 02:16:00,
2013-01-29 20:21:00,29.5,25.8,29.70,NNW,338,0.0,3.0,86,0.00,,BKN020,0.08,VWS V14.01,2013-01-30 02:21:00,
2013-01-29 20:26:00,29.3,25.6,29.70,North,5,2.0,6.0,86,0.00,,BKN020,0.08,VWS V14.01,2013-01-30 02:26:00,
2013-01-29 20:32:00,29.0,25.6,29.70,North,11,1.0,2.0,87,0.00,,BKN020,0.08,VWS V14.01,2013-01-30 02:32:00,
2013-01-29 20:38:00,28.9,25.5,29.70,North,360,0.0,5.0,87,0.00,,BKN020,0.08,VWS V14.01,2013-01-30 02:38:00,
2013-01-29 20:44:00,28.7,25.3,29.69,NNE,17,0.0,3.0,87,0.00,,OVC020,0.08,VWS V14.01,2013-01-30 02:44:00,
2013-01-29 20:49:00,28.6,25.2,29.69,NW,319,0.0,4.0,87,0.00,,OVC020,0.08,VWS V14.01,2013-01-30 02:49:00,
2013-01-29 20:54:00,28.5,25.1,29.67,NNW,347,1.0,1.0,87,0.00,,OVC020,0.08,VWS V14.01,2013-01-30 02:54:00,
2013-01-29 21:00:00,28.4,25.0,29.67,NNW,336,3.0,4.0,87,0.00,,OVC020,0.08,VWS V14.01,2013-01-30 03:00:00,
2013-01-29 21:05:00,28.3,24.9,29.66,NNW,345,1.0,7.0,87,0.00,,OVC020,0.08,VWS V14.01,2013-01-30 03:05:00,
2013-01-29 21:10:00,28.2,24.8,29.67,NNE,16,0.0,5.0,87,0.00,,OVC020,0.08,VWS V14.01,2013-01-30 03:10:00,
2013-01-29 21:15:00,28.2,24.8,29.67,NNW,344,1.0,1.0,87,0.00,,OVC020,0.08,VWS V14.01,2013-01-30 03:15:00,
2013-01-29 21:21:00,28.1,24.7,29.66,NW,315,0.0,6.0,87,0.00,,OVC020,0.08,VWS V14.01,2013-01-30 03:21:00,
2013-01-29 21:26:00,28.1,24.7,29.67,NNW,343,0.0,3.0,87,0.00,,OVC020,0.08,VWS V14.01,2013-01-30 03:26:00,
2013-01-29 21:32:00,28.1,24.7,29.68,NNW,343,2.0,6.0,87,0.00,,OVC020,0.08,VWS V14.01,2013-01-30 03:32:00,
2013-01-29 21:37:00,28.2,24.8,29.69,NNW,329,5.0,7.0,87,0.00,,OVC020,0.08,VWS V14.01,2013-01-30 03:37:00,
2013-01-29 21:42:00,28.2,24.8,29.70,NW,309,0.0,1.0,87,0.00,,OVC020,0.08,VWS V14.01,2013-01-30 03:42:00,
2013-01-29 21:47:00,28.3,25.2,29.70,North,360,1.0,4.0,88,0.00,,OVC020,0.08,VWS V14.01,2013-01-30 03:47:00,
2013-01-29 21:53:00,28.3,25.2,29.71,NNW,345,0.0,7.0,88,0.00,,OVC020,0.08,VWS V14.01,2013-01-30 03:53:00,
2013-01-29 21:58:00,28.2,25.1,29.71,NW,311,0.0,2.0,88,0.00,,OVC020,0.08,VWS V14.01,2013-01-30 03:58:00,
2013-01-29 22:04:00,28.3,25.2,29.71,North,360,0.0,4.0,88,0.00,,OVC020,0.08,VWS V14.01,2013-01-30 04:04:00,
2013-01-29 22:09:00,28.2,25.1,29.71,NNW,338,0.0,3.0,88,0.00,,OVC020,0.08,VWS V14.01,2013-01-30 04:09:00,
2013-01-29 22:14:00,28.2,24.8,29.72,NNW,339,0.0,0.0,87,0.00,,OVC020,0.08,VWS V14.01,2013-01-30 04:14:00,
2013-01-29 22:19:00,28.2,24.8,29.72,NW,325,1.0,4.0,87,0.00,,OVC020,0.08,VWS V14.01,2013-01-30 04:19:00,
2013-01-29 22:24:00,28.2,24.8,29.71,NW,319,1.0,4.0,87,0.00,,OVC020,0.08,VWS V14.01,2013-01-30 04:24:00,
2013-01-29 22:29:00,28.2,24.6,29.72,NNW,344,0.0,3.0,86,0.00,,OVC020,0.08,VWS V14.01,2013-01-30 04:29:00,
2013-01-29 22:34:00,28.2,24.8,29.72,NNW,347,0.0,1.0,87,0.00,,OVC020,0.08,VWS V14.01,2013-01-30 04:34:00,
2013-01-29 22:39:00,28.1,24.7,29.71,NW,326,0.0,0.0,87,0.00,,OVC020,0.08,VWS V14.01,2013-01-30 04:39:00,
2013-01-29 22:45:00,28.1,24.7,29.70,NNW,329,0.0,0.0,87,0.00,,OVC020,0.08,VWS V14.01,2013-01-30 04:45:00,
2013-01-29 22:50:00,28.1,24.7,29.70,NNW,346,0.0,0.0,87,0.00,,OVC020,0.08,VWS V14.01,2013-01-30 04:50:00,
2013-01-29 22:55:00,28.1,25.0,29.70,NNW,330,1.0,2.0,88,0.00,,OVC020,0.08,VWS V14.01,2013-01-30 04:55:00,
2013-01-29 23:03:00,28.1,25.0,29.70,NW,325,2.0,4.0,88,0.00,,OVC020,0.08,VWS V14.01,2013-01-30 05:03:00,
2013-01-29 23:04:00,28.1,25.0,29.70,NW,325,0.0,2.0,88,0.00,,OVC020,0.08,VWS V14.01,2013-01-30 05:04:00,
2013-01-29 23:09:00,28.0,24.9,29.70,NNW,332,2.0,4.0,88,0.00,,OVC020,0.08,VWS V14.01,2013-01-30 05:09:00,
2013-01-29 23:12:00,28.0,24.9,29.70,NW,311,2.0,8.0,88,0.00,,OVC020,0.08,VWS V14.01,2013-01-30 05:12:00,
2013-01-29 23:17:00,27.9,24.5,29.69,NW,317,10.0,10.0,87,0.00,,OVC020,0.08,VWS V14.01,2013-01-30 05:17:00,
2013-01-29 23:22:00,27.8,24.4,29.68,NW,307,2.0,3.0,87,0.00,,OVC020,0.08,VWS V14.01,2013-01-30 05:22:00,
2013-01-29 23:27:00,27.8,24.2,29.69,NW,317,3.0,6.0,86,0.00,,OVC020,0.08,VWS V14.01,2013-01-30 05:27:00,
2013-01-29 23:32:00,27.7,24.1,29.70,NNW,333,2.0,6.0,86,0.00,,OVC020,0.08,VWS V14.01,2013-01-30 05:32:00,
2013-01-29 23:37:00,27.7,24.1,29.70,NNW,343,0.0,3.0,86,0.00,,OVC020,0.08,VWS V14.01,2013-01-30 05:37:00,
2013-01-29 23:43:00,27.6,24.0,29.71,NW,308,4.0,4.0,86,0.00,,OVC018,0.08,VWS V14.01,2013-01-30 05:43:00,
2013-01-29 23:48:00,27.6,24.0,29.72,NNW,332,1.0,6.0,86,0.00,,OVC018,0.08,VWS V14.01,2013-01-30 05:48:00,
2013-01-29 23:53:00,27.6,24.0,29.72,NW,322,6.0,9.0,86,0.00,,OVC018,0.08,VWS V14.01,2013-01-30 05:53:00,
2013-01-29 23:58:00,27.6,24.0,29.71,NNW,348,2.0,8.0,86,0.00,,OVC018,0.08,VWS V14.01,2013-01-30 05:58:00,